N1EDZ Weather Reports


Display with metric or nautical units.
time (UTC)temp
F
wind
direction
speed
MPH
gust
MPH
rain 1hr
in
rain 24hr
in
rain mn
in
humidity
%
barometer
mb
20260504182746 69 185 4.0 8.0 0.00 0.00 0.00 37 1008.0
20260504182247 69 242 2.0 5.0 0.00 0.00 0.00 38 1008.0
20260504181746 69 219 2.0 4.0 0.00 0.00 0.00 37 1008.0
20260504181247 69 238 3.0 6.0 0.00 0.00 0.00 36 1008.0
20260504180746 69 266 2.0 4.0 0.00 0.00 0.00 36 1008.0
20260504180247 69 165 5.0 8.0 0.00 0.00 0.00 37 1008.0
20260504175747 69 228 2.0 6.0 0.00 0.00 0.00 36 1008.0
20260504175247 69 267 3.0 7.0 0.00 0.00 0.00 36 1008.0
20260504174747 69 158 6.0 8.0 0.00 0.00 0.00 35 1008.0
20260504174246 69 159 4.0 10.0 0.00 0.00 0.00 36 1008.0
20260504173747 68 300 2.0 3.0 0.00 0.00 0.00 35 1008.0
20260504173247 68 333 4.0 8.0 0.00 0.00 0.00 36 1008.0
20260504172747 68 282 1.0 3.0 0.00 0.00 0.00 36 1008.0
20260504172247 67 182 3.0 5.0 0.00 0.00 0.00 36 1008.0
20260504171748 67 171 2.0 5.0 0.00 0.00 0.00 37 1008.0
20260504171247 67 217 1.0 3.0 0.00 0.00 0.00 37 1008.0
20260504170746 67 199 4.0 7.0 0.00 0.00 0.00 36 1009.0
20260504170246 67 329 3.0 5.0 0.00 0.00 0.00 37 1009.0
20260504160247 66 307 2.0 3.0 0.00 0.00 0.00 38 1009.0
20260504150748 63 303 2.0 6.0 0.00 0.00 0.00 41 1010.0
20260504150248 62 225 1.0 3.0 0.00 0.00 0.00 42 1010.0
20260504141249 60 305 2.0 4.0 0.00 0.00 0.00 46 1010.0
20260504140746 60 166 5.0 9.0 0.00 0.00 0.00 47 1010.0
20260504140248 60 205 2.0 4.0 0.00 0.00 0.00 47 1011.0
20260504130750 55 178 2.0 3.0 0.00 0.00 0.00 51 1011.0
20260504130248 55 98 1.0 3.0 0.00 0.00 0.00 51 1011.0
20260504120247 51 82 0.0 2.0 0.00 0.00 0.00 56 1011.0
20260504110247 47 0 0.0 0.0 0.00 0.00 0.00 62 1011.0
20260504100249 40 252 0.0 1.0 0.00 0.00 0.00 75 1011.0
20260504081748 42 0 0.0 0.0 0.00 0.00 0.00 71 1011.0
20260504081247 43 0 0.0 0.0 0.00 0.00 0.00 72 1011.0
20260504080746 43 201 0.0 0.0 0.00 0.00 0.00 69 1011.0
20260504080246 44 0 0.0 0.0 0.00 0.00 0.00 69 1011.0
20260504070247 44 0 0.0 0.0 0.00 0.00 0.00 65 1011.0
20260504060246 43 0 0.0 0.0 0.00 0.00 0.00 60 1011.0
20260504050746 43 0 0.0 0.0 0.00 0.00 0.00 66 1011.0
20260504050246 43 0 0.0 0.0 0.00 0.00 0.00 66 1011.0
20260504045747 43 0 0.0 0.0 0.00 0.00 0.00 63 1011.0
20260504045246 44 0 0.0 0.0 0.00 0.00 0.00 65 1011.0
20260504044746 44 233 0.0 2.0 0.00 0.00 0.00 65 1011.0
20260504044246 44 270 0.0 1.0 0.00 0.00 0.00 61 1011.0
20260504043746 44 0 0.0 0.0 0.00 0.00 0.00 65 1011.0
20260504043246 44 251 0.0 1.0 0.00 0.00 0.00 62 1011.0
20260504042746 44 0 0.0 0.0 0.00 0.00 0.00 64 1011.0
20260504042246 44 0 0.0 0.0 0.00 0.00 0.00 63 1011.0
20260504041746 44 0 0.0 0.0 0.00 0.00 0.00 63 1011.0
20260504041247 44 0 0.0 0.0 0.00 0.00 0.00 64 1011.0
20260504040746 44 0 0.0 0.0 0.00 0.00 0.00 64 1011.0
20260504040246 44 238 0.0 1.0 0.00 0.00 0.00 62 1011.0
20260504035746 44 0 0.0 0.0 0.00 0.00 0.00 65 1011.0
20260504035246 44 0 0.0 0.0 0.00 0.00 0.00 62 1011.0
20260504034746 43 254 0.0 2.0 0.00 0.00 0.00 62 1011.0
20260504034246 43 0 0.0 0.0 0.00 0.00 0.00 59 1011.0
20260504033747 43 0 0.0 0.0 0.00 0.00 0.00 64 1011.0
20260504033246 42 0 0.0 0.0 0.00 0.00 0.00 63 1011.0
20260504032746 42 0 0.0 0.0 0.00 0.00 0.00 65 1011.0
20260504032246 42 0 0.0 0.0 0.00 0.00 0.00 66 1010.0
20260504031747 42 0 0.0 0.0 0.00 0.00 0.00 66 1010.0
20260504031246 42 0 0.0 0.0 0.00 0.00 0.00 66 1010.0
20260504030746 42 0 0.0 0.0 0.00 0.00 0.00 65 1010.0
20260504030246 42 0 0.0 0.0 0.00 0.00 0.00 66 1010.0
20260504025746 41 294 0.0 1.0 0.00 0.00 0.00 65 1010.0
20260504025246 41 0 0.0 0.0 0.00 0.00 0.00 65 1010.0
20260504024746 40 226 0.0 1.0 0.00 0.00 0.00 64 1010.0
20260504024246 40 0 0.0 0.0 0.00 0.00 0.00 66 1010.0
20260504023746 40 0 0.0 0.0 0.00 0.00 0.00 66 1010.0
20260504023246 39 247 0.0 0.0 0.00 0.00 0.00 68 1010.0
20260504022746 38 0 0.0 0.0 0.00 0.00 0.00 70 1010.0
20260504022246 38 0 0.0 0.0 0.00 0.00 0.00 73 1010.0
20260504021748 38 0 0.0 0.0 0.00 0.00 0.00 76 1010.0
20260504021247 39 0 0.0 0.0 0.00 0.00 0.00 75 1010.0
20260504020746 39 0 0.0 0.0 0.00 0.00 0.00 77 1010.0
20260504020246 39 0 0.0 0.0 0.00 0.00 0.00 73 1010.0
20260504015747 39 0 0.0 0.0 0.00 0.00 0.00 72 1010.0
20260504015246 40 0 0.0 0.0 0.00 0.00 0.00 70 1010.0
20260504014746 40 0 0.0 0.0 0.00 0.00 0.00 69 1010.0
20260504014246 40 0 0.0 0.0 0.00 0.00 0.00 72 1010.0
20260504013746 40 0 0.0 0.0 0.00 0.00 0.00 74 1010.0
20260504013246 40 0 0.0 0.0 0.00 0.00 0.00 72 1010.0
20260504012746 41 0 0.0 0.0 0.00 0.00 0.00 72 1010.0
20260504012246 41 0 0.0 0.0 0.00 0.00 0.00 71 1010.0
20260504011746 41 0 0.0 0.0 0.00 0.00 0.00 70 1010.0
20260504011246 42 0 0.0 0.0 0.00 0.00 0.00 67 1010.0
20260504010746 42 0 0.0 0.0 0.00 0.00 0.00 64 1010.0
20260504010246 42 0 0.0 0.0 0.00 0.00 0.00 66 1010.0
20260504005746 42 0 0.0 0.0 0.00 0.00 0.00 63 1009.0
20260504005247 42 243 0.0 0.0 0.00 0.00 0.00 66 1009.0
20260504004747 42 0 0.0 0.0 0.00 0.00 0.00 65 1009.0
20260504004246 43 278 0.0 1.0 0.00 0.00 0.00 65 1009.0
20260504003746 43 0 0.0 0.0 0.00 0.00 0.00 63 1009.0
20260504003246 43 0 0.0 0.0 0.00 0.00 0.00 62 1009.0
20260504002746 44 247 0.0 0.0 0.00 0.00 0.00 62 1009.0
20260504002247 44 249 2.0 2.0 0.00 0.00 0.00 60 1009.0
20260504001746 44 259 0.0 2.0 0.00 0.00 0.00 59 1009.0
20260504001246 44 0 0.0 0.0 0.00 0.00 0.00 62 1009.0
20260504000747 44 0 0.0 0.0 0.00 0.00 0.00 64 1009.0
20260504000247 45 269 0.0 1.0 0.00 0.00 0.00 62 1009.0
20260503235746 46 0 0.0 0.0 0.00 0.00 0.00 59 1009.0
20260503235246 46 274 0.0 1.0 0.00 0.00 0.00 57 1009.0
20260503234747 46 0 0.0 0.0 0.00 0.00 0.00 53 1009.0
20260503234246 47 0 0.0 0.0 0.00 0.00 0.00 54 1009.0
20260503233747 47 0 0.0 0.0 0.00 0.00 0.00 54 1009.0
20260503233246 47 0 0.0 0.0 0.00 0.00 0.00 51 1009.0
20260503232747 48 0 0.0 0.0 0.00 0.00 0.00 52 1009.0
20260503232246 48 45 1.0 3.0 0.00 0.00 0.00 50 1009.0
20260503231746 49 0 0.0 0.0 0.00 0.00 0.00 48 1009.0
20260503231246 49 0 0.0 0.0 0.00 0.00 0.00 48 1009.0
20260503230746 50 0 0.0 0.0 0.00 0.00 0.00 49 1009.0
20260503230246 50 0 0.0 0.0 0.00 0.00 0.00 47 1009.0
20260503225746 50 149 1.0 4.0 0.00 0.00 0.00 45 1009.0
20260503225246 50 252 1.0 2.0 0.00 0.00 0.00 45 1009.0
20260503224746 51 0 0.0 0.0 0.00 0.00 0.00 44 1008.0
20260503224246 51 0 0.0 0.0 0.00 0.00 0.00 43 1008.0
20260503223747 51 266 0.0 3.0 0.00 0.00 0.00 43 1008.0
20260503223246 51 312 0.0 2.0 0.00 0.00 0.00 44 1008.0
20260503222746 51 325 2.0 3.0 0.00 0.00 0.00 43 1008.0
20260503222246 51 243 1.0 3.0 0.00 0.00 0.00 43 1008.0
20260503221746 51 10 0.0 2.0 0.00 0.00 0.00 44 1008.0
20260503221246 50 268 0.0 1.0 0.00 0.00 0.00 44 1008.0
20260503220746 50 353 1.0 4.0 0.00 0.00 0.00 43 1008.0
20260503220246 50 318 2.0 4.0 0.00 0.00 0.00 43 1008.0
20260503215746 51 334 1.0 4.0 0.00 0.00 0.00 43 1008.0
20260503215246 51 279 2.0 4.0 0.00 0.00 0.00 42 1008.0
20260503214747 51 314 2.0 3.0 0.00 0.00 0.00 42 1008.0
20260503214247 52 270 3.0 5.0 0.00 0.00 0.00 42 1008.0
20260503213746 53 301 2.0 5.0 0.00 0.00 0.00 41 1008.0
20260503213246 53 347 2.0 3.0 0.00 0.00 0.00 41 1008.0
20260503212746 53 304 2.0 2.0 0.00 0.00 0.00 41 1008.0
20260503212246 53 295 2.0 4.0 0.00 0.00 0.00 41 1008.0
20260503211746 53 285 3.0 4.0 0.00 0.00 0.00 41 1008.0
20260503211246 53 255 0.0 2.0 0.00 0.00 0.00 42 1008.0
20260503210746 52 281 3.0 4.0 0.00 0.00 0.00 42 1008.0
20260503210246 51 341 4.0 6.0 0.00 0.00 0.00 42 1008.0
20260503205746 51 275 1.0 2.0 0.00 0.00 0.00 43 1008.0
20260503205246 51 339 1.0 2.0 0.00 0.00 0.00 43 1008.0
20260503204747 51 303 1.0 3.0 0.00 0.00 0.00 43 1008.0
20260503204246 51 335 2.0 5.0 0.00 0.00 0.00 42 1008.0
20260503203746 51 351 2.0 4.0 0.00 0.00 0.00 43 1008.0
20260503203246 51 356 2.0 5.0 0.00 0.00 0.00 42 1008.0
20260503202746 51 247 2.0 4.0 0.00 0.00 0.00 43 1008.0
20260503202247 51 43 2.0 5.0 0.00 0.00 0.00 42 1008.0
20260503201746 51 324 2.0 4.0 0.00 0.00 0.00 42 1008.0
20260503201246 51 278 3.0 5.0 0.00 0.00 0.00 42 1008.0
20260503200746 50 273 1.0 4.0 0.00 0.00 0.00 44 1008.0
20260503200248 50 0 4.0 7.0 0.00 0.00 0.00 43 1008.0
20260503195746 50 305 2.0 4.0 0.00 0.00 0.00 44 1008.0
20260503195246 50 314 2.0 4.0 0.00 0.00 0.00 43 1008.0
20260503194746 51 228 3.0 5.0 0.00 0.00 0.00 44 1008.0
20260503194246 51 311 2.0 4.0 0.00 0.00 0.00 43 1008.0
20260503193747 51 303 2.0 3.0 0.00 0.00 0.00 43 1008.0
20260503193246 51 243 1.0 4.0 0.00 0.00 0.00 42 1008.0
20260503192746 51 252 2.0 3.0 0.00 0.00 0.00 44 1008.0
20260503192247 50 303 0.0 2.0 0.00 0.00 0.00 46 1008.0
20260503191746 50 318 3.0 4.0 0.00 0.00 0.00 45 1008.0
20260503191246 50 316 3.0 6.0 0.00 0.00 0.00 44 1008.0
20260503190746 50 337 2.0 5.0 0.00 0.00 0.00 46 1008.0
20260503190247 51 291 2.0 4.0 0.00 0.00 0.00 45 1007.0
20260503185746 51 307 3.0 5.0 0.00 0.00 0.00 45 1008.0
20260503185246 51 338 2.0 6.0 0.00 0.00 0.00 45 1008.0
20260503184746 51 288 2.0 4.0 0.00 0.00 0.00 44 1008.0
20260503184247 51 336 1.0 3.0 0.00 0.00 0.00 44 1007.0
20260503183747 50 272 2.0 4.0 0.00 0.00 0.00 45 1008.0
20260503183247 51 344 3.0 6.0 0.00 0.00 0.00 46 1007.0